Regional Weather Roundup
Issued by NWS

Home | Current Version | Previous Version | Graphics & Text | Print | Product List | Glossary On
Versions: 1 2 3 4 5 6 7 8 9 10 11 12 13 14 15 16 17 18 19 20 21 22 23 24 25 26 27 28 29 30 31 32 33 34 35 36 37 38 39 40 41 42 43 44 45 46 47 48 49 50
782
ASUS45 KBOU 241507
RWRCO

WEATHER ROUNDUP FOR COLORADO
NATIONAL WEATHER SERVICE DENVER/BOULDER CO
900 AM MDT WED MAY 24 2017

NOTE: "FAIR" INDICATES FEW OR NO CLOUDS BELOW 12000 FEET WITH NO
SIGNIFICANT WEATHER AND/OR OBSTRUCTIONS TO VISIBILITY.

COZ001>005-013-030-031-241600-
...NORTHWEST COLORADO...

CITY           SKY/WX    TMP DP  RH WIND       PRES   REMARKS
CRAIG          FAIR      55  34  45 NE6       29.97F
HAYDEN         FAIR      52  34  50 E8        29.99F
MEEKER         FAIR      53  35  50 CALM      30.01F
RABBIT EARS PA FAIR      37  32  81 W9G17     30.15S
STEAMBOAT SPGS FAIR      46  34  63 CALM      30.00F
WALDEN           N/A     54  32  43 SW9       30.02F
$$

COZ006>008-011-241600-
...WEST CENTRAL VALLEYS...

CITY           SKY/WX    TMP DP  RH WIND       PRES   REMARKS
GRAND JUNCTION FAIR      62  33  33 S8        29.97F
MONTROSE       FAIR      59  34  39 CALM      30.04F
EAGLE          SUNNY     48  32  53 CALM      30.07F
RIFLE          FAIR      52  31  44 CALM      30.02F
DELTA          FAIR      60  31  33 E5        30.02F
NUCLA          FAIR      59  34  38 S3        30.07F
$$

COZ017>023-064>068-241600-
...SOUTHWEST COLORADO...

CITY           SKY/WX    TMP DP  RH WIND       PRES   REMARKS
DURANGO        FAIR      55  26  32 E7        30.07F
CORTEZ         FAIR      63  38  39 CALM      30.04F
PAGOSA SPRINGS FAIR      54  27  35 CALM      30.13S
TELLURIDE      FAIR      55  32  42 CALM      30.21F
WOLF CREEK PAS FAIR      37  23  56 SW13      30.35R
$$

COZ009-010-012-014-032>034-037-058>063-241600-
...CENTRAL COLORADO...

CITY           SKY/WX    TMP DP  RH WIND       PRES   REMARKS
ASPEN          FAIR      51  33  50 CALM      30.07F
BUENA VISTA    FAIR      59  29  31 W9        30.05R
COPPER MTN     FAIR      41  30  65 NW18G33   30.23S
BERTHOUD PASS  FAIR      30  21  69 NW41G51   30.15S WCI  13
COTTONWOOD PAS FAIR      54  28  37 W13G21    30.13F
GUNNISON       FAIR      46  27  47 CALM      30.14F
KREMMLING      FAIR      48  34  57 CALM      30.06F
LEADVILLE      FAIR      47  27  45 W14       30.14S
MONARCH PASS   FAIR      36  27  69 SW20G26   30.38R
SALIDA         FAIR      61  25  25 CALM      30.09F
SUNLIGHT       FAIR      41  27  56 SW8G17    30.25S
WILKERSON PASS FAIR      41  28  60 W13G23    30.19R
$$

COZ069>075-241600-
...SAN LUIS VALLEY/SANGRE DE CRISTO MOUNTAINS...

CITY           SKY/WX    TMP DP  RH WIND       PRES   REMARKS
ALAMOSA        FAIR      55  25  31 VRB3      30.08S
DEL NORTE      FAIR      53  26  34 E7        30.11R
LA VETA PASS   FAIR      43  25  49 MISG      30.23S
SAGUACHE       FAIR      52  27  37 SE7       30.11S
$$

COZ035-036-038>040-241600-
...NORTHERN COLORADO FRONT RANGE...

CITY           SKY/WX    TMP DP  RH WIND       PRES   REMARKS
DENVER INTL AP FAIR      63  37  38 SW6       29.82F
DMNS CITY PARK   N/A     64  35  34 SE8       29.80F
AURORA         MOSUNNY   64  34  32 CALM      29.83F
FRONT RANGE AP MOSUNNY   64  36  34 S6        29.83F
ERIE MUNI ARPT FAIR      54  38  53 CALM      29.80F
BOULDER MUN AP FAIR      54  37  54 N3        29.80F
CENTENNIAL     FAIR      64  35  34 CALM      29.84S
BROOMFIELD     MOSUNNY   55  37  50 VRB5      29.82F
FORT COLLINS   FAIR      54  38  54 CALM      29.80F
LONGMONT       FAIR      57  40  51 CALM      29.81F
$$

COZ041-046-047-076>085-087-088-241600-
...PIKES PEAK/PALMER DIVIDE AND SOUTHERN FOOTHILLS...

CITY           SKY/WX    TMP DP  RH WIND       PRES   REMARKS
COLO. SPRINGS  FAIR      58  34  40 CALM      29.89F
A. F. ACADEMY  FAIR      57  35  44 S3        29.89F
SCHRIEVER AFB  FAIR      57  35  44 SE5       29.90F
CHEYENNE MTN   FAIR      59  37  43 SE6       29.86F
ELLICOTT       FAIR     N/A N/A N/A CALM      29.88F
FALCON         FAIR      58  31  36 SW6       29.93S
FORT CARSON    FAIR      55  35  47 N5        29.87F
LIMON          FAIR      61  38  42 S10       29.85F
MONUMENT HILL  FAIR      61  34  36 W5        29.93S
CANON CITY     NOT AVBL
WALSENBURG     FAIR      66  34  30 W15G23    29.91S
TRINIDAD       FAIR      64  33  31 W15       29.89F
$$

COZ042>045-048>051-090-091-241600-
...NORTHEAST COLORADO...

CITY           SKY/WX    TMP DP  RH WIND       PRES   REMARKS
GREELEY ARPT   FAIR      55  40  56 CALM      29.81F
AKRON          FAIR      57  37  47 S6        29.81F
BURLINGTON     FAIR      55  40  56 S9        29.84F
WRAY           FAIR      55  37  50 SE8       29.83F
YUMA           NOT AVBL
STERLING       FAIR      52  39  62 SW6       29.79F
HOLYOKE        NOT AVBL
FORT MORGAN    FAIR      53  37  54 SW5       29.81F
$$

COZ086-089-092>099-241600-
...SOUTHEAST COLORADO...

CITY           SKY/WX    TMP DP  RH WIND       PRES   REMARKS
PUEBLO         FAIR      57  37  47 W5        29.85F
LA JUNTA       FAIR      55  40  56 SW5       29.84F
LAMAR          FAIR      57  41  55 CALM      29.84F
SPRINGFIELD      N/A     61  35  37 S7        29.86F
$$




USA.gov is the U.S. government's official web portal to all federal, state and local government web resources and services.